Ping Pong Board
บอร์ด: คนไทยเก่งปิงปอง
บอร์ด: การแข่งขันทั่วไทย
บอร์ด: พูดคุยทั่วไป-สินค้ามือ 2
บอร์ด: สินค้ามือสอง On FB
บอร์ด: แปลงสินทรัพย์เป็นทุน
บอร์ด: ขายสินค้าใหม่ มือ 1
บอร์ด: รีวิวอุปกรณ์
บอร์ด : รีวิวอุปกรณ์ On FB
บอร์ด: เทคนิคการเล่นปิงปอง
บอร์ด: การเมืองเรื่องปิงปอง
บอร์ด: บริจาคอุปกรณ์เหลือใช้
บอร์ด: ปรึกษาอาการบาดเจ็บ
บอร์ด: ปิงปองทุกจังหวัด
บอร์ด: ชมรมคนเล่นยางเม็ด
บอร์ด: จับแบบไม้จีน ไม้ญี่ปุ่น
บอร์ด: สนทนาภาษาปิงปอง
บอร์ด: นัดกันไปเรียน ไปเล่น
บอร์ด: Chat Online
บอร์ด: เล่นเกมส์ปิงปอง
บอร์ด: เกมส์ออนไลน์
สำหรับสมาชิก
นามปากกา
รหัสผ่าน
ลืมรหัสผ่าน
สมัครสมาชิกใช้งาน
กระทู้โดนใจชาวปิงปอง
สถานที่รับสอนปิงปอง
บอร์ดซื้อขายสินค้ามือสอง และพูดคุยแลกเปลี่ยนความคิดเห็นกัน
ตั้งกระทู้-เฉพาะกีฬาปิงปอง
ค้นหาข้อมูล :
ค้นหาจาก :
@เรื่อง.........FromAnswer-ReaderLast Answer
ต้องยาง LKT Black Power มือสอง parinya22/180916/9/2553 13:39:46
รับซื้อไม้ MATSUSHITA PRO MODEL ด้าม ST ตูดผีเสื้อ สภาพ 90 % mintwing70/60316/9/2553 13:35:19
รับซื้อยางBryce speed ด้านแดง สภาพดี gotza55560/60316/9/2553 13:26:31
ขายยางเเดง สามเเผ่น เหมา 1200 บาท bryce+ neos+ pryde panther6/87916/9/2553 13:19:30
รับดูแล ไม้ XIOM FL (Starto, Axelo, Speed) backhand7/90216/9/2553 13:13:01
รายชื่อผู้เข้าร่วมแข่งขันเบื้องต้นครับ ต๊ะTNN241/99516/9/2553 12:53:08
Sardius หน้าสั้น ป้ายยาว แลก tbs ตูดผีเสื้อ nuishiki17/136216/9/2553 12:47:28
รับซื้อไม้ MATSUSHITA PRO MODEL ด้าม ST ตูดผีเสื้อ mintwing70/81616/9/2553 12:34:14
ปีนี้ มีจัดแข่งปิงปองที่บัวใหญ่เดือนพฤศจิกายน pitak5/82316/9/2553 11:46:35
เรื่องเศร้่าของ timo ตูดผีเสื้อ พรพจน์22/108616/9/2553 10:54:57
สอบถามสมาคมค่ะ โดราเอมี่10/113316/9/2553 10:28:00
- ขาย Mizutani Jun FL First Hand - aucefiro28/170216/9/2553 10:18:21
ขายยางปิงปองถูกมากๆ Patsapong14/121416/9/2553 10:10:42
ขออนุญาต รับยางแดง 1 แผ่น baracuda jo platin หรือ soft jo gold jo silver vaga pro หรือ asia pryde หรือ 40 ilpp@siam0/68316/9/2553 8:44:28
ขออนุญาต รับยาง ดำ กับ แดง ด่วนครับ ilpp@siam27/97816/9/2553 8:38:11
บาย T5000 เเละ Jun Magic00546/165016/9/2553 7:01:05
ขอลองขายสักอัน chat vios3/104716/9/2553 7:00:52
ใครอยู่ขอนแก่นแล้วมียางขายบ้างครับ ชางมิน2/76516/9/2553 2:41:54
เปิดรับไม้ jueic heso henoki st panther0/61615/9/2553 23:19:22
เปิดรับยาง buterfly byce สีเเดงหรือดำก็ได้ panther0/60415/9/2553 23:17:57
ขายยางTackifire-c (สีดำ) สภาพ80% timjaza7/90315/9/2553 22:06:43
ขาย Baracuda ดำ Max ผีโต๋เต๋11/134215/9/2553 19:52:33
ระเบียบการแข่งขันปิงปองวิภาวดี โรงเรียนปากเกร็ด : 16-17 ต.ค. 53 friendship7290/82215/9/2553 18:36:09
ขายยางเม็ดยาวสีแดง เม็ดแดง2/92915/9/2553 18:18:07
รับไม้ครับ Tennergy4/88415/9/2553 17:11:34
ขอคำแนะนำ เลือกยางด้านโฟร mama123453/97715/9/2553 15:54:23
มีไม้ Jun ด้าม FL ขอแลกกับไม้ Jun ด้าม st หรือ Timo Boll ZLC ด้าม FL natnaaut32/139415/9/2553 15:11:41
ขาย SARDIUS .... เกรียน15/154615/9/2553 14:12:25
ช่วยแนะนำทีค่ะ ที่เล่น นู๋เปิ้ล5/89715/9/2553 13:23:12
ขายไม้ BUTT GERGELY pomiiouza21/174315/9/2553 11:18:22
ขายยางBOOT TP เลือด้านแดง 600บาท+EMS pingpongmin3/64415/9/2553 9:56:28
ของแรงตัวใหม่ Macna TC สนใจ คลิ๊ค? Kensuke18/133315/9/2553 9:52:09
ใครเป็นสมาชิก vip ลด 15% ปิงปองอินเตอร์ Help Me please!!! ilpp@siam1/92015/9/2553 9:31:18
STIGA EBENHOLZ 5 bueipong0/75915/9/2553 9:27:13
ขายยาง T05 และ Innova ครับ sarachai20/115115/9/2553 7:53:46
รับGergely ,Schalager มือสอง dodo.com28/116615/9/2553 7:07:33
ขอเชิญเข้าร่วม การแข่งขัน เทเบิลเทนนิส ประจำสัปดาห์ (Battle Of Chamption) ณ ห้างสรรพสินค้า เซ็นทรัล บางนา Chill Chill1/66715/9/2553 0:28:44
ขอคำแนะนำเรื่องไม้สำหรับเด็ก 7 ขวบ ด้วยครับ pLus+15/133414/9/2553 23:40:28
ขายไม้ Clearance Sale หลายรายการครับ Pimple Lover32/225414/9/2553 23:38:24
ยางแดงและดำ หนุ่มเกียกกาย24/139014/9/2553 22:41:31
เปิดคลังสินค้าเล็ก ๆ note10/145114/9/2553 22:35:10
มี TBS ตูดผีเสื้อดำ อยากแลกกับ viscaria ครับ interfear54/218914/9/2553 20:16:22
ต้องการไม้ MAZUNOV ด้าม FL หรือ ST ArtitHutem6/93314/9/2553 20:06:04
ขอความเห็น คนที่เคยตีไม้ xiom และ ยาง hexer duro ครับ costheta9/124514/9/2553 19:42:05
มีใครเล่นเฟสบุ๊คบ้างมั้ยครับ beer0/74114/9/2553 19:28:09
สอบถามหน่อย karn0/72114/9/2553 18:23:15
ทีมชายญี่ปุ่นได้ที่ 3 ของโลกเพราะนักกีฬาเป็นจีนโอนสัญชาติ คูเต็กซิม14/161514/9/2553 18:10:47
ขายไม้ viscaria fl ตูดเงิน เพอสัน23/124214/9/2553 16:18:14
รับ TG 05 FX สีแดง เอ็ม20/102914/9/2553 16:00:37
ไทยได้แชมป์ที่ Ecuador ทั้งชายและหญิง ประเภททีม หมิง26/283514/9/2553 15:13:20
Sardiusหน้าสั้นแลกTBS,KLS,M.Maze,keyshot,vicaria nuishiki1/78514/9/2553 14:42:50
ระเบียนการแข่งขันเทเบิลเทนนิส ลพบุรี โอเพ่นครั้งที่ 1 แก้ไขล่าสุด ต๊ะTNN240/72814/9/2553 14:04:00
ผลการคัดตัวเยาวชนจังหวัดนครราชสีมาชายและหญิง juneonion08114/145014/9/2553 13:57:38
เชิญมาตีวันเสาร์ที่ 11 กันยายน 2553 ที่นครนายก คนตรัง87/247914/9/2553 13:41:55
เสื้อสวย ราคาเยาว์ น้ำเงิน5/93414/9/2553 12:49:28
รับไม้ viscaria ตูดผีเสื้อ ทุกสภาพ ให้ราคางดงามขอรับ พรพจน์27/119714/9/2553 12:04:34
มี tbs fl ต้องการแลกกับ keyshot light boyz27/132714/9/2553 11:35:46
ขายยาง pilot power แผ่นสี่เหลี่ยม Moohnoy-narak4/93714/9/2553 11:10:10
ขอปรับวันทำการแข่งขันที่ลพบุรีคับเชิญดูรายละเอียดครับ ต๊ะTNN241/76314/9/2553 10:23:49
ขายยาง G3 และ Innova ครับ sarachai11/107214/9/2553 9:58:53
ขายไม้ DONIC Ovtcharov Senso V1 ด้ามจับ ST TONG87/172514/9/2553 9:50:52
ยางจีน แม่สายCR7/112614/9/2553 9:22:30
โฉมหน้าถ้วยรางวัลเล็กๆน้อยๆจากทีมงานPing Pong Lopburi Club ครับ ต๊ะTNN248/191114/9/2553 8:58:54
ใครจะมาร่วมแข่งที่ลพบุรีในวันที่ 25-26กันยายนนี้ช่วยลงนามกันไว้เบื้องต้นด้วยนะครับ ต๊ะTNN246/76414/9/2553 8:58:35
ขายยาง แผ่นเหลี่ยม testman19/131314/9/2553 8:02:07
*** รับเม็ดสั้นสีแดง Magic pips ครับ**** momotaro10/82614/9/2553 7:43:04
ขายยาง สติกก้าBOOT TP ตีครั้งเดียว ราคา คุย จร้า pingpongmin26/139014/9/2553 7:21:58
ช่วยรีวิวนิดครับ สิรานุวรรตน์9/122014/9/2553 0:51:31
ขายไม้ Andro Kinetic CF Light ด้ามST peterpan09316/127514/9/2553 0:19:42
ขายยาง tihbar grip ตีได้ สองวันสีดำ 800 bath panther3/85613/9/2553 23:34:06
ถามหน่อยค่ะว่าเวลาตีน๊อก นู๋เปิ้ล9/88613/9/2553 23:33:32
ขออนุญาติขาย Stiga Tube carbo WRB st 1400 บาท ,Stiga Clipper WRB st 1200 บาท pum_ma6621/136113/9/2553 23:33:16
รับซื้อยางเม็ดยาวไม่แพงมากสีดำและเม็ดสั้นแดงไม่แพง mark147940/63413/9/2553 23:33:10
ปิงปองเทรนนี่ง ทุกเสาร์ สิ้นเดือน อยากตีกับนักปิงปองท่านใดเรานำมาให้คุณตี panther7/141613/9/2553 23:33:03
[u] [b] อยากได้ยางเม็ดยาวไม่แพงมากสีดำ [/b] [/u] mark147941/62013/9/2553 23:16:29
ผมขอซื้อกาวกระปุ๊กหนึ่งครับ พี่Arts DoMiTa402/84313/9/2553 23:10:38
ขายยางTackifire-c (สีดำ) สภาพ80% timjaza12/87313/9/2553 20:13:44
มีไม้มานำเสนอ หนุ่มเกียกกาย8/118713/9/2553 19:54:26
<<< ตามหาไม้..BTY.. HINOKI SHAKE BEAT.. >>> herpes10/174113/9/2553 19:05:51
tg 05 ดำ สวยๆ ครับ พรพจน์7/97813/9/2553 18:11:07
ขายไม้ Yasaka Carbon Max 3D st สภาพดีราคาถูก kingleten9/122613/9/2553 17:53:13
-ขายไม้ donic Persson PowerPlay+donic F1+xushaofa 999 LSZ manmodifly5/161113/9/2553 17:49:59
ขอรับ viscaria FL ตูดอะไรก็ได้ที่ขายถูกๆีครับ อิอิ costheta37/117113/9/2553 17:13:30
S.T05 FX สภาพ 95% 157x152 ไม่หด , T64 สภาพ 90% 156x151 หดนิดห่อย ... carbonz14/105613/9/2553 16:23:59
มีไม้ yasaka panther ต้องการแลกกับStiga EBenholz หรือ stiga Titanium WRB CAKE23/195613/9/2553 16:21:22
ปิงปองไทยบูมแน่ ถ้า........ หนุ่มรามฯ16/223413/9/2553 16:06:13
รับ Hurricane King FL Surakob4/96213/9/2553 15:45:49
ขาย เด็กดี1/73913/9/2553 15:38:00
ขาย TSP brio ดำ max อีกครั้ง ลดสุดๆแล้วววว zazayo3/73913/9/2553 15:34:26
รับยาง Donic Desto F3 Big Slam แดง Bobbie5/85713/9/2553 14:33:33
ขอขายยาง F3 ดำ-แดง 1คู่ ครับ Fossil9/102713/9/2553 14:32:37
ฝากช่วยดูแล(ขายครับ)TimoBoll T5000 สภาพสวย Fighter40/162613/9/2553 14:31:44
คุณเชื่อเรี่องการโม ไม้ปิงปองหรือไม่ panther17/303113/9/2553 13:36:16
ประวัติการแข่ง Ariel Hising ซ้อมที่ ICC TABLE TENNIS ครับ ขี้โม้0/81313/9/2553 13:20:11
ขายไม้ทั้งชุด ราคาเบาๆ Bobbie29/133913/9/2553 12:15:45
ใครด่าสมาคม ขอให้เล่นปิงปองไม่เก่ง มหาปิงปอง14/157613/9/2553 12:08:49
ขาย TENERGY 05 และ BRYCE SPEED wut00711/126313/9/2553 11:56:05
***อยากให้มีไม้ปิงปองสวย ๆ มาโชร์กันทุก ๆ วันเลย*** เม็ดแดง7/146913/9/2553 10:29:18
ถึง คุณพี่ เพอสัน BooM!!!0/73913/9/2553 9:36:46
ต้องการขาย +++Sriver G2 แดง-ดำ+++ Tackfire special soft ดำ+++ beerryc11/106113/9/2553 9:20:05
bty yuki fl VS ไม้ประกอบราคาพอกัน migkie11/138913/9/2553 8:36:39
ขายไม้ Donic Burn oof - FL hakung1116/110613/9/2553 1:41:52
ขัดไม้คาร์บอนให้บางลง beer14/125913/9/2553 0:26:50
มีงบ2500 ช่วบเลือกไม้และอย่างหน่อยครับ ballnaja19/159212/9/2553 22:19:37
+++ ขายยาง Xiom omega 3 +++ hakung11110/133912/9/2553 21:28:00
คลิป Zhang Jike ซ้อม nitro17/169512/9/2553 21:10:30
พี่โอ๋จะเอาไม้รุ่นนี้มาขายไหมเนี่ย Pimple Lover2/129412/9/2553 19:59:04
(CS) ที่อยู่ที่ตอนเลือกซื้อไม้ปิงปอง มันคือไรเหรอครับ migkie5/120212/9/2553 19:58:11
bty yuki fl กับ bty yuki 2 fl(cs) ต่างกันยังไงครับ migkie3/92812/9/2553 18:46:12
ผลการแข่งขันเทเบิลเทนนิสนักเรียนนักศึกษานครราชสีมา juneonion0813/102512/9/2553 16:49:20
ผลการแข่ง กรมพละ ประจำปี 2550 แอม15/186912/9/2553 16:24:45
ขายอีกนิด ยาง andro revolution และ globe 999 พองนำญี่ปุ่น jabJAB37/190912/9/2553 16:01:57
Clearance Sale รองเท้า Li-Ning "แท้" 2 คู่ครับ Pimple Lover2/112512/9/2553 15:44:25
เสียดายไม่หาย ballnaja14/133212/9/2553 15:28:49
มาดูการแข่ง อายู 21ปี ของญี่ปุ่น ครับ ตีโต้สวนกันทุกรูปแบบ ครับ ขี้โม้22/158912/9/2553 14:27:10
butterfly kiso hinoki vll ดีไหมครับ malinyasaka1/217812/9/2553 14:16:15
ขาย T05 ดำแดงครับ kitty1230/77812/9/2553 13:43:59
ขายกล้องวงจรปิดซูชินโกะราคาทุนให้เฉพาะสมาชิกปิงปองบอร์ดเท่านั้น เอ๋สมุย0/90612/9/2553 13:42:47
ขายไม้ 3 รายการ toono22/153012/9/2553 13:30:01
เรียนปิงปองbasicฟรีกับนพ.ณรงค์ หมอศัลยกรรมกระดูกจากม.มหิดล เอ๋สมุย1/96812/9/2553 13:28:29
ยาง globe 999 2.2 ดีไหมครับ migkie3/94012/9/2553 12:43:55
สปอตเชิญเข้าร่วมการแข่งขันลพบุรีโอเพ่นครั้งที่ 1 ครับ ต๊ะTNN2438/120712/9/2553 11:03:48
รับไม้ Timo Boll spark ด้าม FL ไม้ปิงปอง18/171412/9/2553 10:24:17
ไม้ในดวงใจ pingpong_crazy16/123512/9/2553 10:23:46
ไม้ติดยางสำเร็จรูป bty ต่างกันไงครับ migkie22/358112/9/2553 10:22:34
ถามเรื่องการสั่งซื้อของผ่าน Internet ต่างประเทศ Sekson4/112812/9/2553 10:18:38
@k.mangmun Bobbie14/98612/9/2553 8:29:13
Baracuda VS Hexer+ อันไหนดีกว่าครับ CKRAZR3/106012/9/2553 8:26:52
รับซื้่อไม้ XIOM STRADIVARIUS กับ ไม้ Nittaku LATIKA natnaaut1/88212/9/2553 8:25:23
มาดูว่าเทพๆใช้ยางอะไรกัน สรยุทธ1/124912/9/2553 2:58:24
สอบถามเรื่องยางฟองน้ำพรุนครับ Bobbie6/107312/9/2553 0:33:41
ขายยางboot tp มีดำแผ่นละ1พัน pingpongmin1/61311/9/2553 22:23:36
ขาย primorac carbon FL & Boll tricarbon AN ครับ eak_00124/114911/9/2553 22:10:21
ขายไม้ครับ มิสเตอร์บอส1/79511/9/2553 21:59:29
เปิดสอนปิงปองหรือกีฬาเทเบิลเทนนิสเต็มรูปแบบทุกเพศทุกวัย การันตีความสำเร็จ (ถ้ามีความตั้งใจและสม่ำเสมอ) ณ เซ็นทรัลบวงนา เหนือ ซอยตัน69/413611/9/2553 21:04:18
เสื้อใหม่ สวยๆ ราคาถูก น้ำเงิน70/320011/9/2553 21:03:13
ขอถามหน่อยครับ แม่สายCR0/65411/9/2553 20:54:49
รับซื้อไม้ Tibhar STRATUS SAMSONOV CARBON ครับ natnaaut16/115411/9/2553 19:47:48
เปรียทเทียบให้หน่อยคับอันไหนดีกว่ากัน ปัญจพล0/71111/9/2553 18:05:48
ตอนนี้มีใครใช้ไม้ xiom อยู่บ้างมั้ยครับ อยากทราบข้อมูลไม้ spinder24/573811/9/2553 16:57:36
ถึงคุณ เบาหวิว ครับผม ปอยตบยุง4/86211/9/2553 16:06:23
---=== ตามหา Gergely ป้ายยาวครับ ===--- creative19/156711/9/2553 15:41:26
แต่ละเดือน..แต่ละท่านซื้อไม้ปิงปองกันกี่ไม้ครับ TKMP18/117511/9/2553 15:23:46
หา Sardius ตูด ผีเสื้อ สภาพไม่เกี่ยง Lolipopzii42/196711/9/2553 14:00:08
ขายไม้สุดท้ายในสต๊อคผมแล้วครับ pingpong_crazy22/118611/9/2553 13:05:57
ขาย TG 05 ดำ หนึ่งแผ่น (มือสอง) BooM!!!39/129011/9/2553 10:58:25
มีใครเบื่อ BUT HOLYCROWN มั่งคับ owin0/66611/9/2553 8:58:23
ยาง DHS ที่ร้านเซี่ยงไฮ้ รุ่นไหนฟองน้ำสีน้ำเงินบ้าง beerryc3/99511/9/2553 7:56:30
รบกวนผู้รู้แนะนำยางติดด้าน แบ๊กแฮนด์ หน่อยครับ sherbet3/87411/9/2553 7:11:43
ขายยาง TG 25 ครับ สภาพ 85 % ครับ (500)คับ Ku I"Ho4/83311/9/2553 5:22:23
ขาย TSP brio ดำ max zazayo4/87611/9/2553 0:39:25
ขออนุญาติขาย primorac carbon FL 90% & Boll tricarbon AN 95% ครับ eak_00128/144210/9/2553 23:55:02
ถึงคุณ bueipong pum_ma664/74010/9/2553 23:31:36
ศรีราชา ซอยอัสสัม ตีกันกี่โมงเหรอคะ แมงปอ1/67410/9/2553 22:57:44
ขายเสื้อขำ ๆ aucefiro16/133910/9/2553 21:49:49
ม.ธนเเข่งวันไหนครับ wut0070/58510/9/2553 20:54:55
ขอขอบคุณทีมงานที่ดูแลเว็ปบอร์ดทุกท่านครับ ต๊ะTNN247/82110/9/2553 20:46:27
TG05ดำ /BRYCE SPEEDดำ/ JOOLAแดง juneonion0816/99810/9/2553 20:28:59
TG 05 ดำ 1050 /กว้าง16ยาว16.3 ใหญ่จริงๆ juneonion0813/80410/9/2553 20:28:21
ต่างชาติก็หัวเราะชื่อ Miyabi ของ Nittaku เหมือนกัน beer2/116010/9/2553 19:44:55
ตั้งรับ Sardius รุ่น 3 สภาพดี ราคาไม่แรง ตอนรับราคาใหม่ Butterfly pongmusic17/157710/9/2553 18:29:50
ขายไม้ keyshot light ยาง sriver fx, dhs skyline2 ใหม่มากๆ spinder35/193010/9/2553 18:26:35
คลิปนี้เป็นการตีโต้ ไปมา และมีการตีทุกลูกรวมทั้งลูก loop และลูก smash ด้วย ขี้โม้0/80410/9/2553 18:24:46
ขอรับยาง xten ดำ chat-vios0/68510/9/2553 17:45:50
ขายไม้ SWORD RG-UA FL hakung1117/102910/9/2553 15:46:09
ขาย Timo Boll ALC ST+ T05 + Spinart autoresume29/202810/9/2553 15:28:50
ต้องการ Bryce Speed//Speed FX สีแดง มือ2หรือใหม่ Toppycandy1/68210/9/2553 15:20:05
ขายไม้ครึ่งวงกลม ยกชุด ให้เท่าไหร่ เสนอมาได้เลย (สินค้าในรูปครับ) เอ๋ BL79/402410/9/2553 14:33:15
ขาย Dr. Bamboo Def Plus พร้อม Dr.Monster Ox สีแดง Nevery28/135310/9/2553 14:28:13
ขาย TG05 FX 2.1 สีแดง สี่เหลี่ยม 1850 Nevery12/85110/9/2553 14:21:22
แผ่นที่3 ขายยางปิงปอง JOOLA DRUM CWX สีดำสภาพ 90%+ รูปจริง ฟองน้ำใหม่ๆ ราคา 290 มาก่อนได้ก่อนอายุ7วัน 30ส.ค สรยุทธ8/80610/9/2553 14:12:44
To คูณ Maze dodo.com1/63110/9/2553 12:31:23
DHS H3 NEO VS DHS S3 NEO 410.- bueipong10/113610/9/2553 9:30:34
ถามหน่อยครับ ปิงปองบอรืด ใครมี user name เยอะที่สุด panther11/118610/9/2553 9:05:30
ฝากให้คุณเหน่ง และ นักปิงปองทุกคน ร้านปิงปองอินเตอร์2/130310/9/2553 8:34:00
ถึงคุณ pingpongmin chat vios1/71110/9/2553 6:49:47
กาว haifu รุ่นนี้ต่างกับรุ่นที่ใช้ตัวไปยังไงคับ atorza11/190910/9/2553 1:18:50
ขาย Stradivarius FL สวยๆ Lolipopzii4/105510/9/2553 0:27:40
ขายยางมือสองครับ เหนือ ซอยตัน15/182310/9/2553 0:19:30
+++ ขายไม้ TIBHAR STRATUS POWER WOOD +++ hakung1118/8749/9/2553 23:23:08
ที่จังหวัด หนองบัวลำภู มีที่ตีที่ไหนบ้าง ช่วยบอกหน่อยครับ kingleten3/6899/9/2553 23:18:43
ถึ่งคุณนัตติพงศ์ wut0074/7839/9/2553 23:08:47
ขายไม้ But..Xstar ตูดผีเสื้อครับ peterpan09312/10529/9/2553 23:05:24
อยากได้ยางครับด่วน... Nai19800/6269/9/2553 22:43:00
ถึ่งคุณ juneonion081ครับ wut0071/7769/9/2553 22:15:16
ขออนุญาตขายไม้ Jun -FL ครับ bank_noon4/10489/9/2553 21:51:07
ขาย Bryce Fxสีแดง natha26/14299/9/2553 21:35:29
แผ่นที่3 ขายยางปิงปอง JOOLA DRUM CWX สีดำสภาพ 90%+ รูปจริง ฟองน้ำใหม่ๆ ราคา 290 มาก่อนได้ก่อนอายุ7วัน สรยุทธ18/10749/9/2553 21:22:07
ถึงโค๊ชต้นนครปฐม หมอก5/10159/9/2553 21:19:23
รับไม้ Banda Taurus ครับ จนจัด6/8549/9/2553 21:08:39
รับเม็ดสั้นมือ2 hakung11122/8899/9/2553 20:51:17
ขายไม้เเละยางDONIC ปัญจพล3/9259/9/2553 20:36:42
DHS MEMO 2 & DHS MEMO 3 bueipong2/13819/9/2553 20:36:34
รบกวนช่วยรีวิวยาง andro หน่อยครับ toono4/11679/9/2553 20:25:05
ถามผู้รู้จริงเกี่ยวกับไม้ซาร์เดียสครับ akedlt18/18059/9/2553 19:42:41
ขาย รองเท้ Yasaka 2คู่ครับ KissSeeD21/12989/9/2553 18:51:07
sale baracuda tenergy6/13209/9/2553 18:37:35
ปล่อยtimo boll zlc ด้าม fl ยางบาราคูด้าดำและแดง 2.0 สภาพ95% เอ๋สมุย28/14219/9/2553 18:04:09
ถามเรื่อง timo boll spirit ใครเคยตีเข้ามาตอบทีครับ clound11/10829/9/2553 17:47:15
saleถึงวันที่ 8 ก.ย. เด็กดี9/13429/9/2553 16:29:47
Page :  1  2  3  4  5  6  7  8  9  10  11  12  13  14  15  16  17  18  19  20  21  22  23  24  25  26  27  28  29  30  31  32  33  34  35  36  37  38  39  40  41  42  43  44  45  46  47  48  49  50  51  52  53  54  55  56  57  58  59  60  61  62  63  64  65  66  67  68  69  70  71  72  73  74  75  76  77  78  79  80  81  82  83  84  85  86  87  88  89  90  91  92  93  94  95  96  97  98  99  100  101  102  103  104  105  106  107  108  109  110  111  112  113  114  115  116  117  118  119  120  121  122  123  124  125  126  127  128  129  130  131  132  133  134  135  136  137  138  139  140  141  142  143  144  145  146  147  148  149  150  151  152  153  154  155  156  157  158  159  160  161  162  163  164  165  166  167  168  169  170  171  172  173  174  175  176  177  178  179  180  181  182  183  184  185  186  187  188  189  190  191  192  193  194  195  196  197  198  199  200  201 
[ First ] [<< back ] [ next>> ] [ Last ]  
VIP SPONSOR

 

ห้ามอย่านำสินค้าหนีภาษี - สินค้าหิ้วเข้ามาเอง - สินค้าปลอม มาจำหน่ายในเวปนี้
 
© 2020 All Rights Reserved
Powered by
ThaiWebWizard.com